When you browse on this site, cookies collect data to enhance your experience and personalize the content and advertising you see.
Visit our Privacy Policy to learn more. By continuing to use the site, you agree to this use of cookies and data.
  • In Lithuania
  • List of Countries
  • For 7 days
  • Water Temperature
  • Weather Map
  • Weather Widgets
  • user-avatar
    Login

    Hourly Weather Jalalabad

    Today, 10 December, Tuesday

    Time Temperature Precipitation Wind Pressure Humidity
    00:00 +12°C° 0 mm 0 mps 712 mmHg 25%
    01:00 +12°C° 0 mm 0 mps 711 mmHg 26%
    02:00 +12°C° 0 mm 0 mps 711 mmHg 26%
    03:00 +12°C° 0 mm 0 mps 711 mmHg 26%
    04:00 +11°C° 0 mm 0 mps 710 mmHg 26%
    05:00 +11°C° 0 mm 0 mps 710 mmHg 28%
    06:00 +11°C° 0 mm 0 mps 710 mmHg 28%
    07:00 +12°C° 0 mm 0 mps 710 mmHg 29%
    08:00 +12°C° 0 mm 0 mps 711 mmHg 29%
    09:00 +14°C° 0 mm 0 mps 710 mmHg 25%
    10:00 +16°C° 0 mm 0 mps 710 mmHg 21%
    11:00 +17°C° 0 mm 0 mps 710 mmHg 17%
    12:00 +18°C° 0 mm 0 mps 710 mmHg 17%
    13:00 +18°C° 0 mm 0 mps 709 mmHg 17%
    14:00 +19°C° 0 mm 0 mps 709 mmHg 16%
    15:00 +18°C° 0 mm 0 mps 708 mmHg 20%
    16:00 +17°C° 0 mm 0 mps 708 mmHg 24%
    17:00 +16°C° 0 mm 0 mps 708 mmHg 28%
    18:00 +16°C° 0 mm 0 mps 708 mmHg 28%
    19:00 +18°C° 0 mm 1 mps 708 mmHg 29%
    20:00 +16°C° 0 mm 1 mps 709 mmHg 29%
    21:00 +16°C° 0 mm 1 mps 709 mmHg 31%
    22:00 +16°C° 0 mm 1 mps 709 mmHg 33%
    23:00 +16°C° 0 mm 1 mps 709 mmHg 35%

    Tomorrow, 11 December, Wednesday

    Time Temperature Precipitation Wind Pressure Humidity
    00:00 +15°C° 0 mm 1 mps 709 mmHg 35%
    01:00 +15°C° 0 mm 1 mps 709 mmHg 36%
    02:00 +13°C° 0 mm 0 mps 709 mmHg 36%
    03:00 +13°C° 0 mm 1 mps 708 mmHg 37%
    04:00 +13°C° 0 mm 1 mps 708 mmHg 37%
    05:00 +12°C° 0 mm 1 mps 708 mmHg 38%
    06:00 +12°C° 0 mm 1 mps 709 mmHg 38%
    07:00 +11°C° 0 mm 0 mps 709 mmHg 39%
    08:00 +11°C° 0 mm 0 mps 709 mmHg 40%
    09:00 +13°C° 0 mm 0 mps 709 mmHg 36%
    10:00 +14°C° 0 mm 0 mps 709 mmHg 31%
    11:00 +16°C° 0 mm 0 mps 710 mmHg 27%
    12:00 +18°C° 0 mm 1 mps 709 mmHg 27%
    13:00 +19°C° 0 mm 1 mps 708 mmHg 28%
    14:00 +19°C° 0 mm 1 mps 708 mmHg 28%
    15:00 +18°C° 0 mm 1 mps 708 mmHg 32%
    16:00 +18°C° 0 mm 1 mps 708 mmHg 36%
    17:00 +16°C° 0 mm 1 mps 708 mmHg 40%
    18:00 +14°C° 0 mm 0 mps 708 mmHg 42%
    19:00 +14°C° 0 mm 0 mps 708 mmHg 44%
    20:00 +13°C° 0 mm 0 mps 709 mmHg 45%
    21:00 +13°C° 0 mm 0 mps 709 mmHg 46%
    22:00 +13°C° 0 mm 0 mps 709 mmHg 46%
    23:00 +12°C° 0 mm 0 mps 709 mmHg 47%

    Day after tomorrow, 12 December, Thursday

    Time Temperature Precipitation Wind Pressure Humidity
    00:00 +12°C° 0 mm 0 mps 709 mmHg 46%
    01:00 +13°C° 0 mm 1 mps 709 mmHg 46%
    02:00 +13°C° 0 mm 1 mps 709 mmHg 45%
    03:00 +13°C° 0 mm 1 mps 708 mmHg 45%
    04:00 +13°C° 0 mm 1 mps 708 mmHg 46%
    05:00 +11°C° 0 mm 0 mps 707 mmHg 46%
    06:00 +13°C° 0 mm 1 mps 708 mmHg 45%
    07:00 +13°C° 0 mm 1 mps 708 mmHg 45%
    08:00 +13°C° 0 mm 1 mps 708 mmHg 44%
    09:00 +14°C° 0 mm 1 mps 708 mmHg 43%
    10:00 +15°C° 0 mm 1 mps 708 mmHg 43%
    11:00 +15°C° 0 mm 1 mps 708 mmHg 42%
    12:00 +15°C° 0.2 mm 2 mps 708 mmHg 48%
    13:00 +13°C° 0.2 mm 3 mps 707 mmHg 53%
    14:00 +13°C° 0.2 mm 4 mps 706 mmHg 59%
    15:00 +12°C° 0.4 mm 3 mps 706 mmHg 64%
    16:00 +12°C° 0.4 mm 2 mps 706 mmHg 70%
    17:00 +12°C° 0.4 mm 1 mps 706 mmHg 75%
    18:00 +11°C° 1.5 mm 1 mps 706 mmHg 80%
    19:00 +11°C° 1.5 mm 1 mps 706 mmHg 84%
    20:00 +10°C° 1.5 mm 1 mps 706 mmHg 89%
    21:00 +10°C° 2 mm 1 mps 706 mmHg 90%
    22:00 +10°C° 2 mm 1 mps 706 mmHg 90%
    23:00 +10°C° 2 mm 1 mps 705 mmHg 91%

    13 December, Friday

    Time Temperature Precipitation Wind Pressure Humidity
    00:00 +10°C° 1.4 mm 1 mps 705 mmHg 90%
    01:00 +10°C° 1.4 mm 1 mps 705 mmHg 90%
    02:00 +10°C° 1.4 mm 1 mps 705 mmHg 90%
    03:00 +10°C° 1.1 mm 1 mps 705 mmHg 90%
    04:00 +9°C° 1.1 mm 1 mps 705 mmHg 90%
    05:00 +9°C° 1.1 mm 1 mps 705 mmHg 90%
    06:00 +8°C° 0.5 mm 0 mps 705 mmHg 89%
    07:00 +8°C° 0.5 mm 0 mps 706 mmHg 88%
    08:00 +9°C° 0.5 mm 0 mps 706 mmHg 87%
    09:00 +9°C° 0.1 mm 0 mps 706 mmHg 85%
    10:00 +9°C° 0.1 mm 0 mps 706 mmHg 83%
    11:00 +11°C° 0.1 mm 1 mps 706 mmHg 81%
    12:00 +11°C° 0 mm 1 mps 706 mmHg 78%
    13:00 +12°C° 0 mm 1 mps 706 mmHg 74%
    14:00 +11°C° 0 mm 0 mps 706 mmHg 71%
    15:00 +12°C° 0 mm 1 mps 706 mmHg 71%
    16:00 +12°C° 0 mm 1 mps 706 mmHg 71%
    17:00 +12°C° 0 mm 1 mps 707 mmHg 71%
    18:00 +12°C° 0 mm 1 mps 707 mmHg 73%
    19:00 +10°C° 0 mm 0 mps 708 mmHg 76%
    20:00 +10°C° 0 mm 0 mps 709 mmHg 78%
    21:00 +10°C° 0 mm 0 mps 710 mmHg 78%
    22:00 +10°C° 0 mm 0 mps 710 mmHg 78%
    23:00 +10°C° 0 mm 0 mps 711 mmHg 78%

    14 December, Saturday

    Time Temperature Precipitation Wind Pressure Humidity
    00:00 +10°C° 0 mm 0 mps 711 mmHg 78%
    01:00 +10°C° 0 mm 0 mps 711 mmHg 77%
    02:00 +10°C° 0 mm 0 mps 711 mmHg 77%
    03:00 +10°C° 0.1 mm 0 mps 712 mmHg 77%
    04:00 +10°C° 0.1 mm 0 mps 712 mmHg 77%
    05:00 +10°C° 0.1 mm 0 mps 712 mmHg 77%
    06:00 +10°C° 0.1 mm 0 mps 712 mmHg 77%
    07:00 +10°C° 0.1 mm 0 mps 713 mmHg 77%
    08:00 +10°C° 0.1 mm 0 mps 713 mmHg 76%
    09:00 +10°C° 0 mm 0 mps 713 mmHg 74%
    10:00 +12°C° 0 mm 1 mps 713 mmHg 71%
    11:00 +12°C° 0 mm 1 mps 714 mmHg 68%
    12:00 +12°C° 0 mm 1 mps 713 mmHg 66%
    13:00 +13°C° 0 mm 1 mps 713 mmHg 63%
    14:00 +13°C° 0 mm 1 mps 712 mmHg 61%
    15:00 +13°C° 0 mm 1 mps 712 mmHg 63%
    16:00 +13°C° 0 mm 1 mps 712 mmHg 64%
    17:00 +13°C° 0 mm 1 mps 712 mmHg 66%
    18:00 +12°C° 0 mm 1 mps 713 mmHg 69%
    19:00 +12°C° 0 mm 1 mps 713 mmHg 71%
    20:00 +10°C° 0 mm 0 mps 713 mmHg 73%
    21:00 +10°C° 0 mm 0 mps 714 mmHg 73%
    22:00 +10°C° 0 mm 0 mps 714 mmHg 73%
    23:00 +10°C° 0 mm 0 mps 714 mmHg 72%

    15 December, Sunday

    Time Temperature Precipitation Wind Pressure Humidity
    00:00 +10°C° 0 mm 0 mps 714 mmHg 71%
    01:00 +11°C° 0 mm 1 mps 714 mmHg 69%
    02:00 +11°C° 0 mm 1 mps 714 mmHg 68%
    03:00 +10°C° 0 mm 1 mps 713 mmHg 67%
    04:00 +10°C° 0 mm 1 mps 713 mmHg 66%
    05:00 +10°C° 0 mm 1 mps 713 mmHg 64%
    06:00 +10°C° 0 mm 1 mps 713 mmHg 63%
    07:00 +10°C° 0 mm 1 mps 713 mmHg 62%
    08:00 +10°C° 0 mm 1 mps 714 mmHg 60%
    09:00 +11°C° 0 mm 1 mps 713 mmHg 53%
    10:00 +12°C° 0 mm 1 mps 713 mmHg 46%
    11:00 +13°C° 0 mm 1 mps 713 mmHg 39%
    12:00 +14°C° 0 mm 1 mps 712 mmHg 37%
    13:00 +14°C° 0 mm 1 mps 711 mmHg 34%
    14:00 +15°C° 0 mm 1 mps 710 mmHg 32%
    15:00 +14°C° 0 mm 1 mps 710 mmHg 36%
    16:00 +13°C° 0 mm 0 mps 711 mmHg 40%
    17:00 +12°C° 0 mm 0 mps 711 mmHg 44%
    18:00 +12°C° 0 mm 0 mps 711 mmHg 44%
    19:00 +12°C° 0 mm 1 mps 712 mmHg 45%
    20:00 +12°C° 0 mm 1 mps 712 mmHg 46%
    21:00 +11°C° 0 mm 1 mps 713 mmHg 46%
    22:00 +11°C° 0 mm 1 mps 713 mmHg 46%
    23:00 +11°C° 0 mm 1 mps 713 mmHg 47%
    Show more